RH
65 58 54 71 83 95 96 100 84 86 92 98 98 96 95 96 97 96 96 96 95 95 94 94 94 92 85 73 61 51 51 50 47 45 44 47 55 65 77 84 86 87 88 87
65 65 67 58 72 90 95 91 93 89 96 97 96 96 96 96 96 96 95 94 90 89 90 89 88 84 75 56 47 47 49 50 49 48 48 54 62 78 90 92 92 89 86 87
68 66 61 80 93 95 82 89 78 90 95 96 96 97 96 96 94 92 84 70 69 71 65 58 53 51 51 51 52 53 56 59 62 62 63 63 63 67 78 87 86 87 89 88
82 76 88 94 97 90 94 95 90 82 94 96 97 96 96 95 92 82 80 74 74 73 65 62 63 65 67 67 67 68 69 70 70 69 70 72 74 75 77 81 86 89 94 94
97 96 95 97 96 97 98 96 95 93 83 97 96 94 90 100 92 99 93 80 74 75 76 75 74 72 72 71 69 69 68 66 66 67 65 66 71 77 81 82 85 88 90 88
94 92 95 98 98 95 96 97 94 94 88 80 80 81 75 81 87 95 92 81 81 69 60 54 53 53 54 55 54 52 51 50 50 52 57 68 76 79 83 87 93 96 96 94
95 95 96 97 96 77 75 98 96 84 81 80 78 88 84 92 99 94 82 69 63 59 55 53 51 52 53 53 54 55 57 57 56 55 55 57 62 73 88 93 97 96 97 97
94 90 95 97 96 83 100 97 97 97 97 96 89 79 87 88 85 77 67 58 56 57 59 60 59 60 60 62 61 58 57 57 58 58 59 63 68 75 84 91 96 98 97 96
98 100 100 96 97 98 97 97 98 100 97 95 82 80 85 88 86 83 76 67 67 66 68 68 69 70 70 67 63 63 66 69 72 73 72 72 73 76 80 85 87 88 91 91
98 98 96 89 78 88 97 96 94 95 97 95 89 82 75 71 71 74 72 68 65 66 73 79 79 76 68 62 65 56 48 45 43 42 41 40 41 45 48 49 48 46 44 37
88 89 93 92 82 75 71 81 88 89 89 86 84 81 77 74 73 71 70 70 72 78 89 86 80 70 44 28 14 8 6 6 6 7 7 7 8 9 9 9 10 10 10 10
91 86 81 65 55 56 77 88 87 83 81 80 78 78 76 74 73 73 75 78 86 94 89 82 70 33 15 8 7 7 7 9 10 10 11 12 11 11 12 12 12 12 12 12
37 53 49 37 50 68 63 55 61 70 79 85 81 76 72 71 74 75 82 89 94 86 80 73 31 12 9 10 12 13 14 14 14 14 14 15 14 14 15 16 17 17 16 14
26 22 22 19 21 19 19 26 36 54 62 61 58 49 45 57 77 85 95 96 85 81 76 34 14 10 13 15 15 13 12 10 10 9 9 10 10 12 17 26 27 21 13 13
14 13 11 11 12 14 16 18 30 42 55 64 68 65 57 55 71 87 87 82 79 68 30 13 12 14 14 12 10 10 10 10 11 12 14 20 26 32 33 24 14 14 15 17
14 10 10 11 12 12 13 13 13 15 16 24 33 43 55 61 62 63 64 62 47 26 16 15 14 12 10 10 11 13 14 13 14 20 31 38 37 29 20 19 21 22 22 18
74 71 65 41 14 9 9 10 10 10 10 10 12 15 16 16 19 21 20 19 16 16 15 12 10 9 9 10 11 13 18 18 19 30 41 38 32 29 31 33 34 32 27 24
75 72 70 70 72 73 64 34 12 9 10 10 10 9 9 10 10 10 10 10 10 9 9 8 8 9 9 9 10 11 12 17 19 36 42 39 38 39 42 42 42 40 35 30
76 69 66 67 68 69 69 68 68 73 60 28 10 9 10 10 10 9 9 9 9 9 9 9 9 9 10 10 11 12 13 15 18 35 43 43 44 46 49 51 50 48 43 36
50 40 39 44 46 47 47 51 65 73 72 69 74 80 75 58 33 16 9 8 9 10 10 10 10 10 11 11 12 14 16 17 19 36 44 48 53 61 63 61 59 56 50 41
61 56 56 56 59 63 64 66 65 52 52 70 77 81 82 84 83 87 92 96 85 83 64 40 20 14 13 14 14 17 20 22 23 38 46 56 94 91 82 78 72 67 59 49
64 60 55 50 60 68 69 69 71 75 78 68 56 78 88 92 93 96 97 97 98 92 91 96 97 87 53 29 19 21 28 34 81 83 62 67 85 84 89 90 84 78 68 55
71 65 49 51 62 64 65 65 70 73 79 82 85 74 66 86 96 97 99 98 94 94 93 100 98 96 90 71 36 29 27 27 48 69 57 50 56 84 95 94 90 87 77 64
74 69 47 52 59 61 62 60 59 62 69 75 80 87 91 82 92 98 99 98 96 96 94 100 97 95 88 61 36 40 42 61 81 55 43 45 73 97 96 96 94 91 85 75
78 66 43 57 57 55 56 57 56 58 58 62 68 75 81 86 89 91 89 92 95 94 96 98 97 95 79 68 53 50 77 71 43 42 56 93 99 98 97 97 97 95 93 88
79 54 40 58 55 46 43 43 42 44 48 52 56 61 65 70 74 78 80 82 85 87 92 96 95 83 70 60 60 67 53 46 51 90 99 100 100 100 99 99 99 99 99 96
75 44 34 54 50 34 28 26 25 25 28 31 36 41 44 52 57 64 68 73 79 80 83 89 86 82 64 53 51 49 50 56 82 100 100 100 100 100 100 99 98 100 100 91
Wind_Speed
4 4 7 7 10 6 9 8 3 5 8 16 19 22 21 22 22 22 23 24 22 19 17 15 14 14 14 15 14 15 15 14 14 14 13 13 13 14 15 16 16 17 18 19
4 2 3 6 6 7 1 5 7 6 8 17 20 24 25 25 24 24 23 21 19 18 17 15 15 16 18 19 19 17 17 17 16 17 16 16 17 18 19 19 20 20 20 20
2 4 6 1 1 5 7 5 4 5 5 18 22 27 23 20 14 13 13 13 13 14 15 16 18 19 19 19 18 18 18 17 16 16 16 16 18 19 20 21 21 21 21 22
4 6 3 2 2 5 9 9 9 7 7 18 19 17 16 13 10 10 10 10 11 11 12 12 13 13 14 14 14 14 14 15 15 16 16 17 19 20 21 22 22 23 23 23
3 3 4 2 5 4 9 9 12 11 12 15 11 13 15 16 15 13 11 10 11 11 10 10 10 9 10 10 11 11 12 13 14 15 16 17 18 19 20 22 23 23 23 22
3 2 4 8 4 7 10 7 9 13 13 13 14 15 15 16 14 13 11 10 10 10 10 9 8 7 7 8 9 10 11 12 14 15 16 17 19 19 20 21 22 22 22 22
8 3 4 11 8 7 2 4 9 10 11 11 12 10 11 14 15 14 14 12 10 9 7 6 6 8 9 11 12 13 15 15 16 17 17 18 20 20 21 22 22 22 22 22
5 3 4 11 5 9 10 8 9 9 13 15 12 11 12 14 14 13 12 10 9 8 7 8 10 11 13 14 14 15 16 17 18 18 18 19 20 20 21 21 22 22 22 22
4 3 5 8 11 13 11 9 7 8 9 11 11 11 11 11 12 14 13 10 9 10 12 13 14 14 15 15 16 15 13 13 14 15 15 16 17 18 19 20 21 22 22 23
1 1 2 2 1 2 5 6 7 9 10 11 11 11 11 12 12 13 14 14 14 15 15 15 14 14 15 13 12 12 11 11 11 11 12 13 14 15 17 18 19 19 20 21
6 6 7 9 10 9 9 12 13 13 13 14 15 15 16 16 16 17 17 17 18 16 15 14 14 14 12 11 10 9 9 8 8 9 9 10 10 11 12 13 14 15 17 18
7 9 10 11 12 12 14 15 14 15 17 17 18 17 17 17 18 18 18 18 16 15 14 14 14 12 11 10 9 8 8 8 8 8 9 9 10 11 12 14 15 17 19 20
10 8 8 7 7 9 12 15 17 18 19 20 20 21 22 20 18 17 17 16 15 15 15 14 13 12 11 11 10 10 10 11 12 12 13 13 14 15 15 16 18 19 20 22
7 7 7 6 4 3 2 1 4 7 10 14 17 18 19 19 18 15 16 17 17 16 15 14 13 13 13 13 12 12 13 13 14 15 15 16 16 17 18 19 19 20 21 22
9 9 8 8 7 7 7 6 5 3 2 2 6 10 12 14 16 19 21 18 16 15 15 14 15 14 14 13 13 14 15 15 15 15 16 16 17 18 19 19 20 21 23 25
10 9 8 7 6 5 4 4 4 4 5 4 3 4 8 12 14 14 14 14 14 15 17 16 15 15 16 16 17 17 17 17 17 17 17 18 19 19 19 20 22 23 24 26
11 10 8 7 6 5 4 4 4 3 2 1 1 4 6 7 9 11 13 15 16 16 15 16 20 18 19 20 20 20 19 19 19 18 19 20 20 20 21 22 23 24 25 27
14 13 13 12 12 12 11 10 9 9 9 8 9 9 10 11 13 15 16 16 16 17 17 20 23 21 21 22 22 22 22 22 22 21 21 21 22 22 23 23 24 25 26 27
14 14 14 15 16 17 19 20 18 17 16 15 16 16 16 16 17 18 17 17 18 19 20 23 24 23 23 24 24 24 24 24 24 23 23 22 23 23 24 25 25 26 27 27
17 18 19 20 21 21 21 22 21 22 24 24 23 22 20 20 21 22 22 21 22 22 25 25 25 24 25 26 25 24 24 24 24 24 24 23 23 24 25 26 26 27 28 28
20 21 22 23 23 23 23 23 23 24 25 23 25 26 26 27 26 26 25 24 23 27 29 28 25 25 26 26 26 23 24 23 24 24 24 24 25 26 27 28 28 28 28 29
20 21 22 22 21 20 21 20 19 20 23 25 24 23 25 26 27 25 24 22 25 26 25 26 28 28 27 26 25 24 25 25 25 25 26 27 27 27 28 29 30 30 30 29
21 21 21 20 18 16 17 16 16 15 16 18 20 23 23 23 23 22 20 22 23 25 24 23 24 25 25 25 24 24 24 25 26 27 27 28 28 29 30 30 31 31 30 30
22 21 21 19 17 15 14 13 11 11 11 13 14 16 17 19 20 21 22 24 25 24 22 22 23 23 23 22 22 23 24 26 27 27 27 28 29 31 31 31 31 31 31 30
21 20 19 17 15 13 12 11 10 9 9 8 8 9 11 13 15 20 20 20 19 19 19 19 20 21 21 21 23 23 26 27 27 27 27 29 30 31 31 32 31 31 30 29
22 19 17 14 13 12 10 10 9 9 9 8 7 7 7 8 9 11 12 13 15 16 16 18 19 21 21 23 24 26 27 27 27 27 29 30 31 31 32 31 31 30 29 28
21 17 15 14 12 11 10 9 9 8 8 8 8 8 8 8 9 10 12 13 14 16 16 18 20 22 23 25 26 28 28 28 29 29 31 30 30 30 30 30 29 28 28 27
Wind_Direction
329 319 326 346 318 349 73 104 130 172 178 178 168 163 165 165 164 167 170 166 158 151 152 154 159 169 183 192 201 208 210 214 216 219 220 227 232 234 236 236 236 236 235 237
350 331 330 306 320 276 184 98 114 115 161 173 163 158 150 149 146 143 140 139 145 153 158 165 175 184 192 202 208 212 216 221 226 231 233 235 237 238 238 238 239 240 239 238
342 341 326 256 282 217 215 168 126 128 156 158 164 169 150 147 141 138 144 152 165 176 184 192 196 201 205 209 213 217 221 226 230 235 238 240 242 242 242 241 246 248 247 248
315 335 37 108 54 168 196 190 182 168 153 157 152 153 157 151 163 170 179 190 197 198 206 209 208 206 208 211 215 219 222 226 230 234 237 240 243 246 248 250 248 247 248 248
343 338 300 129 64 117 155 188 191 175 177 188 168 174 182 180 196 195 202 204 200 199 196 194 194 195 197 202 207 212 217 223 229 233 237 239 241 244 246 249 251 253 254 256
354 20 22 9 33 125 118 84 177 186 185 197 205 208 208 201 203 201 205 184 166 165 170 178 190 204 215 222 226 230 233 234 235 237 240 242 243 245 247 250 252 256 257 259
25 24 38 13 102 103 87 57 132 154 167 177 189 188 186 182 185 182 170 171 177 185 193 207 227 242 250 252 252 250 248 247 246 245 245 246 248 249 249 250 252 253 256 260
7 24 14 27 58 97 95 96 123 118 134 124 132 143 156 163 164 170 171 174 180 193 220 244 255 260 263 263 260 257 255 251 248 244 242 240 241 243 246 248 250 253 256 259
33 81 68 55 80 109 124 129 137 149 141 138 145 157 169 176 184 190 195 203 226 247 257 261 262 265 266 267 265 256 246 241 238 237 236 237 239 241 244 247 250 254 257 260
357 69 323 349 14 218 196 184 174 175 180 187 187 190 193 198 202 207 219 234 248 258 261 258 258 263 268 260 246 242 240 239 238 237 238 240 241 243 246 250 253 256 258 259
309 284 285 279 284 275 248 235 231 229 225 224 223 225 229 232 234 236 241 248 255 256 250 250 256 262 252 239 235 233 232 233 234 234 235 238 241 244 249 253 256 260 262 265
319 303 291 283 272 262 246 241 238 240 240 239 240 240 242 244 245 245 244 244 239 235 239 246 252 240 228 224 222 224 227 233 239 242 245 249 254 258 261 264 266 266 268 269
322 317 312 303 285 270 256 249 248 248 245 240 241 242 244 244 239 237 234 229 225 232 240 245 234 221 218 219 222 227 233 238 243 247 251 256 259 262 266 270 270 270 270 273
11 19 21 26 21 20 14 284 262 257 252 245 237 233 231 228 226 224 220 221 232 238 239 232 222 220 223 227 232 240 246 251 254 258 261 264 266 268 270 271 272 273 275 279
40 40 43 47 51 53 49 48 47 49 57 142 181 194 202 209 215 220 226 234 235 233 232 226 226 229 237 244 250 255 258 258 260 262 265 269 271 272 272 273 273 276 280 283
38 34 29 25 26 30 35 42 54 69 75 91 125 174 192 201 212 220 226 230 234 233 229 231 238 242 247 251 255 258 260 261 262 266 270 270 271 274 274 275 278 280 282 283
354 353 354 350 339 326 314 307 310 313 308 299 220 209 212 215 217 220 225 229 233 238 240 243 248 250 254 256 259 261 263 263 263 267 270 271 272 272 275 279 281 283 284 285
317 309 303 300 298 297 295 288 280 273 267 258 251 248 245 241 239 240 243 244 247 250 250 251 256 259 260 263 265 264 264 264 264 266 269 271 273 275 277 280 283 286 287 289
314 313 310 305 298 290 284 279 275 273 270 265 260 257 257 257 258 259 260 260 260 259 258 258 262 266 267 266 266 266 265 265 264 266 268 270 273 277 281 284 286 288 289 290
316 315 311 306 301 294 287 283 278 272 267 265 263 261 260 260 259 259 261 262 263 263 265 266 266 267 267 267 267 266 265 265 264 266 269 270 274 279 282 284 287 288 289 290
311 314 313 311 307 301 292 284 278 272 271 268 265 263 261 261 263 265 266 265 260 257 260 265 269 269 267 267 268 264 264 265 266 268 269 271 276 280 284 285 286 288 288 289
310 312 314 314 311 305 300 295 288 279 272 269 265 263 262 262 261 262 262 263 261 267 269 267 263 261 263 267 269 267 265 263 268 269 270 272 277 282 284 285 287 288 289 289
309 312 314 315 313 312 306 304 299 292 279 272 266 262 260 261 262 262 262 262 265 273 273 270 267 265 262 264 266 266 266 264 268 270 272 273 277 283 285 286 286 287 287 287
310 311 313 313 313 315 314 316 315 310 293 282 275 269 263 259 259 258 258 264 270 268 265 262 265 264 263 263 263 266 266 269 272 273 274 276 281 284 285 285 286 286 286 287
312 309 308 308 308 311 311 313 318 319 315 309 295 282 271 265 261 262 267 269 265 262 260 259 260 261 263 265 267 268 272 274 273 274 277 281 282 283 285 285 285 286 286 286
309 306 302 303 303 308 314 321 324 324 323 321 317 306 292 280 272 267 266 264 264 263 260 259 259 261 265 268 270 273 274 273 273 278 282 283 284 286 286 286 286 286 285 284
304 300 296 297 297 298 303 309 313 315 315 316 317 314 308 299 290 281 276 272 267 266 263 262 266 269 271 273 275 276 276 274 274 281 285 285 286 286 286 286 286 284 283 286